STARLINK-37689, 69308

Orbit data source: Space-Track

STARLINK-37689, 69308 is a payload satellite owned by SpaceX/Seattle (US) in SSO that was launched on Sat, 30 May 2026 UTC via an FALCON 9 launch vehicle from the Air Force Western Test Range (AFWTR). Payload-class satellites include a variety of spacecraft equipped with specific instruments for various scientific and technological missions. These include communications satellites like Starlink; space stations such as the ISS; scientific satellites like the Hubble; Earth observation satellites from companies like Planet Labs, Umbra, and HawkEye 360; GPS; miniature CubeSats for education and research; and military/defense satellites.

Loading next visibility...
Identifier
69308, 2026-119N
Orbit
SSO
Country
Flag of USUS
Related business
Manufacturer
SpaceX/Seattle
Mission
Operational Commercial Communications
Bus & Motor
STARLINK V2MO, Unknown motor
Mass
575 kg wet, ~530 kg dry
Launch date (UTC)
2026-05-30 (4 months ago)
Launch vehicle
FALCON 9
Launch site
Air Force Western Test Range (AFWTR)
Object type
Payload
Rocket body
Debris
Shape & HBR
Box + 1 Pan, 17.7 m
Radar Cross Section
41.120 m², Large (>1 m²)

Expand to show TLE details & history
Last TLE update: 18 hours ago

TLE from 18 hours ago
0 STARLINK-37689
1 69308U 26119N   26263.56317470  .00008355  00000-0  26078-3 0  9994
2 69308  97.2832 288.3141 0000943 144.4396 215.6910 15.33451111 18674
Epoch: 2026-09-20T13:30Z
TLE epoch observation values (Epoch: 2026-09-20T13:30:58.294Z)
Latitude
0.00003°
Longitude
86.11564°
Altitude
469.161 km
Speed
7.631 km/s
True Right ascension
19h 13m 15s
True Declination
0° 00' 00"
Sunlit
Object was in daylight at epoch
Visualization orbit readout
Latitude
Unknown
Longitude
Unknown
Altitude
Unknown
Speed
Unknown
Apparent Right ascension
Unknown
Apparent Declination
Unknown
Sunlit
N/A
Visualization observer readout
Local Sidereal Time
00:08:45
Azimuth
Unknown
Elevation
Unknown
Doppler factor
Unknown
Orbital elements
Apogee altitude
463.113 km
Perigee altitude
461.823 km
Semi-major axis
6,840.605 km
Eccentricity
0.00009
Inclination
97.2832°
RAAN
288.3141°
Arg. of periapsis
144.4396°
True anomaly
215.6847°
Mean anomaly
215.691°
Eccentric anomaly
215.68785°
Mean motion
3.8362 °/min
Orbital period
93.84 mins
BSTAR
0.00026078
Loading maneuver chart data...
Computing Atmospheric mass density...
Loading historical data...
Loading historical data...
Loading historical data...
Loading historical data...
Loading historical data...
Loading historical data...
Loading historical data...

Documentation

Showing up to 5 results
|